Location: Newark
(44.2003°N, 3.2583°E)
Time: 23:55:43
(UTC+00:00)

SR - Pass Details

Date: 27 October 2019
Orbit: 574 x 882 km, 66.7° (Epoch: 11 November)

Event Time Altitude Azimuth Distance (km) Brightness Sun altitude
Rises 04:40:24 0° 329° (NNW) 3,459 - -17.8°
Exits shadow 04:41:44 - 330° (NNW) 2,968 ? -17.6°
Reaches altitude 10° 04:42:54 10° 332° (NNW) 2,536 ? -17.4°
Maximum altitude 04:48:50 71° 56° (NE) 933 ? -16.3°
Drops below altitude 10° 04:54:42 10° 140° (SE) 2,505 ? -15.3°
Sets 04:57:09 0° 143° (SE) 3,414 ? -14.8°
